To NAV CANADA Home Page Login to a new session Search on AWWS site Feedback and Comments Disclaimer Vers la page française équivalente Tips FAQ What's new on the site To the Forecasts and Observations / NOTAM section To "File a Flight Plan" website Publications and other links Update of the User's profile FIC Telephone Numbers My Weather Data Folder Route Weather Data Regional Weather Data Local Weather Data To the Forecasts and Observations / NOTAM section
Request Generated 05/30/2015 at 20:11:20 UTC . Weather information available at that time is displayed.

METAR/TAF

PANGNIRTUNG/NU    (show WxCam)

LWIS CYXP 302000Z AUTO 26010KT M00/M05 A2971=
METAR CYXP 301900Z 26009KT 15SM FEW020 BKN035 BKN220 M01/M05 A2970
RMK SC1SC6CI1 CI TR -0.5/-2.0/0.0 25 SNOW CVR/MEDIUM PACK LAST STFD
OBS/NEXT 311600Z SLP058=
METAR CYXP 301800Z 22008KT 15SM FEW018 BKN032 M01/M07 A2970 RMK
SC1SC5 SLP058=

*** REMARK        : Forecast period has ended; this was the last TAF issued
*** REMARQUE : La période de prévision est échue; ceci était le dernier TAF qui a été émis
TAF CYXP 301538Z 3016/3019 27010KT P6SM OVC030
RMK NXT FCST WILL BE ISSUED AT 311745Z=
Your time UTC time
Weather data provided by Environment Canada and NAV CANADA